#timestamp,LO_Frequency,Hit,StdDev 
1548324015.5,286047003.0,N
1548324035.3,286047004.8,N
1548324055.2,286047004.9,N
1548324075.0,286047006.9,Y
1548324075.9,286047006.9,P
1548324095.8,286047004.9,N
1548324115.6,286047005.3,N
1548324135.4,286047007.5,Y
1548324155.3,286047003.8,P
1548324175.1,286047003.7,P
1548324195.9,286047004.3,P
1548324215.7,286047002.3,Y
1548324235.5,286046999.5,P
1548324255.4,286046999.1,N
1548324275.2,286046998.8,N
1548324295.0,286046996.5,N
1548324295.9,286046996.5,N
1548324315.8,286046996.7,N
1548324335.6,286046999.5,N
1548324355.5,286046999.0,N
1548324375.3,286046996.6,N
1548324395.1,286046999.5,N
1548324415.9,286046999.5,N
1548324435.7,286046998.9,N
1548324455.5,286047000.3,N
1548324475.4,286046999.5,N
1548324495.2,286046999.6,N
1548324515.0,286046997.3,N
1548324516.0,286046997.3,N
1548324535.8,286046996.1,N
1548324555.6,286046994.0,Y
1548324575.5,286046993.6,P
1548324595.3,286046994.6,N
1548324615.1,286046994.4,N
1548324635.9,286046991.7,Y
1548324655.7,286046999.2,P
1548324675.6,286046998.0,N
1548324695.4,286046995.0,P
1548324715.2,286046996.7,N
1548324735.1,286047000.8,N
1548324736.0,286047000.8,N
1548324755.8,286047002.6,N
1548324775.6,286046999.9,N
1548324795.5,286047002.3,N
1548324815.3,286047001.6,N
1548324835.2,286047002.5,N
1548324855.9,286046999.7,N
1548324875.7,286046999.8,N
1548324895.6,286047002.8,N
1548324915.4,286047000.1,N
1548324935.2,286047002.4,N
1548324955.1,286047000.2,N
1548324956.0,286047000.2,N
1548324975.8,286047002.4,N
1548324995.7,286047001.9,N
1548325015.5,286047003.8,N
1548325035.3,286047003.9,N
1548325055.2,286047004.8,N
1548325075.0,286047007.6,Y
1548325075.9,286047007.6,P
1548325095.7,286047003.2,N
1548325115.6,286047002.5,N
1548325135.4,286047002.1,N
1548325155.3,286047002.4,N
1548325175.1,286047002.7,N
1548325176.0,286047002.7,N
1548325195.8,286047002.1,N
1548325215.7,286047002.7,N
1548325235.5,286046998.1,N
1548325255.3,286047000.9,N
1548325275.2,286046998.1,N
1548325295.0,286047000.0,N
1548325295.9,286047000.0,N
1548325315.8,286047000.1,N
1548325335.6,286046998.2,N
1548325355.4,286047000.0,N
1548325375.3,286047001.9,N
1548325395.1,286047004.3,N
1548325415.8,286047001.9,N
1548325435.7,286047002.0,N
1548325455.5,286047004.4,N
1548325475.4,286047002.0,N
1548325495.2,286047001.0,N
1548325515.0,286046999.7,N
1548325515.9,286046999.7,N
1548325535.8,286046999.8,N
1548325555.6,286047001.2,N
1548325575.4,286046999.3,N
1548325595.3,286046996.5,N
1548325615.1,286046997.4,N
1548325635.9,286046997.1,N
1548325655.7,286047000.7,N
1548325675.5,286047001.8,N
1548325695.4,286046998.2,N
1548325715.2,286047000.8,N
1548325735.0,286046998.7,N
1548325735.9,286046998.7,N
1548325755.8,286046999.6,N
1548325775.6,286046997.8,N
1548325795.5,286046996.8,N
1548325815.3,286046995.6,N
1548325835.1,286046996.2,N
1548325855.9,286046993.3,Y
1548325875.7,286046993.9,P
1548325895.5,286046995.8,N
1548325915.4,286046997.3,N
1548325935.2,286046998.7,N
1548325955.1,286047000.4,N
1548325956.0,286047000.4,N
1548325975.8,286047002.5,N
1548325995.6,286047003.9,N
1548326015.5,286047001.5,N
1548326035.3,286047002.4,N
1548326055.1,286047000.3,N
1548326075.9,286046998.5,N
1548326095.7,286046997.0,N
1548326115.6,286046997.1,N
1548326135.4,286046999.4,N
1548326155.2,286046998.2,N
1548326175.1,286047000.9,N
1548326176.0,286047000.9,N
1548326195.8,286047000.0,N
1548326215.6,286047000.8,N
1548326235.5,286046998.1,N
1548326255.3,286046998.3,N
1548326275.2,286046999.0,N
1548326295.9,286046999.5,N
1548326315.7,286046998.8,N
1548326335.6,286047001.1,N
1548326355.4,286047001.0,N
1548326375.2,286047000.6,N
1548326395.1,286047000.4,N
1548326396.0,286047000.4,N
1548326415.8,286047000.0,N
1548326435.7,286047000.9,N
1548326455.5,286046998.5,N
1548326475.3,286046999.1,N
1548326495.2,286046998.4,N
1548326515.0,286046998.3,N
1548326515.9,286046998.3,N
1548326535.7,286047001.4,N
1548326555.6,286047004.1,N
1548326575.4,286047005.2,Y
1548326595.3,286047007.0,P
1548326615.1,286047003.3,N
1548326635.8,286047001.3,N
1548326655.7,286047003.3,N
1548326675.5,286047004.5,N
1548326695.4,286047005.1,N
1548326715.2,286047005.0,N
1548326735.0,286047005.3,N
1548326735.9,286047005.3,N
1548326755.8,286047001.9,N
1548326775.6,286047004.2,N
1548326795.4,286047002.1,N
1548326815.3,286047002.0,N
1548326835.1,286047000.0,N
1548326855.9,286047000.4,N
1548326875.7,286046998.1,N
1548326895.5,286046996.8,N
1548326915.4,286047000.9,N
1548326935.2,286047001.5,N
1548326955.0,286047004.4,N
1548326955.9,286047004.4,N
1548326975.8,286047002.4,N
1548326995.6,286047002.8,N
1548327015.5,286047000.3,N
1548327035.3,286047000.2,N
1548327055.1,286046999.5,N
1548327075.9,286046996.7,N
1548327095.7,286046999.2,N
1548327115.5,286046997.0,N
1548327135.4,286047000.8,N
1548327155.2,286047000.4,N
1548327175.0,286047000.5,N
1548327175.9,286047000.5,N
1548327195.8,286047002.6,N
1548327215.6,286047003.6,N
1548327235.5,286047003.5,N
1548327255.3,286047002.9,N
1548327275.1,286047004.5,N
1548327295.9,286047005.2,N
1548327315.7,286047005.3,N
1548327335.5,286047004.1,N
1548327355.4,286047001.6,N
1548327375.2,286047001.9,N
1548327395.1,286047001.0,N
1548327396.0,286047001.0,N
1548327415.8,286046999.8,N
1548327435.6,286047000.1,N
1548327455.5,286047002.0,N
1548327475.3,286047002.8,N
1548327495.1,286047002.7,N
1548327515.9,286046999.8,N
1548327535.7,286047000.5,N
1548327555.6,286047000.7,N
1548327575.4,286047001.1,N
1548327595.2,286047000.7,N
